Theta_e
308 309 308 308 309 310 310 309 310 310 310 309 308 310 314 316 317 314 311 312 311 317 319 318 319 320 318 317 317 318 312 313 315 317 316 318 316 320 320 322 322 321 321 321 321
308 309 308 309 310 310 309 310 310 311 310 308 311 315 316 316 316 312 309 310 311 316 317 318 317 317 318 318 318 314 311 314 315 315 316 317 318 318 319 319 319 320 320 320 320
308 310 310 310 311 310 310 311 310 309 309 309 313 315 317 319 322 316 315 316 315 317 318 318 318 318 318 319 319 318 313 317 318 318 319 317 317 318 317 316 318 318 318 319 319
308 310 311 311 311 310 310 310 309 308 309 312 315 315 316 317 318 313 315 316 317 317 318 318 317 317 316 315 318 318 318 318 318 318 318 316 318 316 317 317 317 317 317 318 318
308 310 311 311 311 310 310 310 310 309 310 314 315 315 316 320 316 315 316 316 316 316 317 317 316 316 312 314 316 315 315 317 318 318 317 317 316 315 316 317 317 317 318 317 317
309 308 311 311 310 309 310 311 311 311 313 314 314 315 318 320 317 317 317 317 315 316 316 317 317 316 316 316 315 317 317 317 318 318 317 315 315 317 317 318 317 318 318 318 318
310 309 310 310 310 309 310 311 310 311 314 315 316 319 321 316 316 317 318 317 317 316 316 316 316 316 316 315 318 318 315 315 316 317 316 317 315 316 318 318 318 319 319 318 318
310 310 310 310 313 310 311 311 310 312 314 315 317 319 323 316 316 317 315 316 316 317 316 317 316 317 316 317 317 316 315 314 315 317 317 317 315 316 319 319 319 319 319 319 318
311 311 310 313 313 311 311 311 311 311 313 315 319 322 323 317 317 315 315 316 316 316 317 317 317 317 318 316 314 315 314 315 315 316 316 315 314 317 318 317 317 319 319 319 319
311 311 312 314 312 312 313 313 312 312 312 314 318 319 319 317 316 316 316 316 316 317 317 318 318 314 314 314 314 314 314 313 314 314 315 315 315 315 317 318 319 319 318 319 319
309 311 312 313 316 316 318 320 320 318 318 319 319 318 317 316 315 316 316 316 316 316 315 317 313 313 314 314 314 313 313 313 314 315 314 314 315 315 316 318 318 318 319 319 318
305 311 311 312 314 317 317 317 317 317 318 318 320 317 317 316 315 317 316 316 315 314 315 313 313 315 316 314 314 314 314 314 315 315 315 314 315 315 315 316 318 319 319 318 318
305 311 312 313 316 318 318 318 317 318 318 320 319 317 318 316 316 317 316 316 315 315 315 314 315 316 316 316 317 315 314 315 315 316 316 315 315 315 316 317 317 319 320 320 320
305 307 312 316 319 319 318 317 317 318 320 323 320 318 316 315 316 317 317 316 315 315 315 315 315 316 316 317 316 315 315 316 317 316 316 315 316 315 315 316 319 320 320 321 321
306 306 312 314 317 319 317 317 317 320 329 321 319 317 316 316 317 317 316 315 315 315 316 315 315 316 317 317 316 315 316 316 316 316 315 317 316 317 319 321 321 321 321 321 320
306 306 313 319 320 318 317 317 320 325 333 319 318 317 316 317 317 317 317 316 317 316 316 316 318 317 316 317 317 316 315 315 314 313 315 316 322 320 321 321 320 322 320 321 320
307 307 313 317 319 317 317 318 323 330 322 319 317 316 315 316 318 319 318 317 316 316 317 318 317 316 317 317 316 315 313 312 315 315 317 322 320 320 321 321 321 321 320 320 321
310 310 311 313 318 318 317 320 326 326 319 318 316 315 316 318 319 319 318 318 318 317 315 315 317 317 317 316 315 315 315 312 318 319 319 319 319 319 321 321 321 320 320 321 321
314 320 319 320 318 316 318 322 325 320 318 317 316 316 318 319 318 318 318 318 318 316 316 315 317 316 316 316 315 315 314 313 317 318 318 319 317 320 321 322 320 320 320 320 321
320 321 322 316 315 316 319 322 323 318 317 316 316 317 318 318 318 317 318 319 319 317 316 316 316 316 316 316 316 315 315 316 317 323 321 318 317 323 322 321 321 321 320 320 320
317 324 321 319 315 317 322 325 320 318 316 316 317 318 318 318 318 317 318 318 318 317 315 315 315 316 315 315 315 314 313 314 318 319 323 319 317 320 320 322 321 319 318 319 319
319 323 321 317 317 322 323 319 317 319 318 318 318 319 319 318 318 318 318 318 318 318 316 314 314 315 315 314 313 313 316 317 319 320 321 320 322 321 319 320 319 319 318 318 318
317 321 319 317 320 318 320 320 318 319 319 318 318 317 317 317 316 319 319 318 318 318 318 316 315 316 316 314 313 313 314 313 314 315 317 320 317 316 316 317 317 318 318 318 317
318 320 318 316 317 316 317 318 318 318 318 318 318 318 318 319 318 318 318 318 316 317 317 316 314 317 318 316 314 315 315 314 312 313 314 315 315 315 316 317 317 317 317 317 318
319 316 315 316 316 315 317 319 319 320 319 317 317 316 316 317 317 317 316 316 316 315 316 317 315 316 315 315 316 316 316 314 312 312 315 316 316 317 317 315 316 316 316 316 316
313 313 312 312 315 316 316 319 319 317 316 316 316 317 316 316 316 315 314 314 314 314 313 314 310 316 318 317 316 315 315 313 314 316 317 319 320 317 317 315 314 315 315 314 315
310 310 311 312 314 315 315 314 315 316 316 315 315 315 316 314 313 313 313 312 312 312 312 312 313 312 315 314 315 313 314 316 319 318 318 318 315 314 313 313 312 312 313 313 313
Wind_Speed
11 10 9 9 9 10 10 9 9 8 6 5 7 13 13 10 9 8 6 4 4 7 9 12 10 3 5 9 8 6 3 4 8 5 7 19 13 27 23 14 12 7 10 12 13
11 10 8 8 8 9 10 7 9 7 5 5 12 13 11 9 8 7 7 3 3 7 10 14 13 8 7 12 5 3 3 7 6 6 6 16 13 20 17 21 15 20 11 17 17
13 10 9 8 8 9 10 7 7 7 6 9 13 11 7 4 2 7 15 15 12 8 7 6 5 11 12 17 7 8 5 5 18 23 13 14 11 19 16 9 20 22 26 20 18
13 10 9 8 8 10 10 8 7 8 9 11 11 7 1 6 3 5 12 12 10 9 12 17 11 12 4 6 13 2 8 9 21 25 11 7 24 6 15 17 22 24 25 26 23
14 10 8 8 8 10 9 6 6 8 10 10 7 2 5 7 2 4 7 9 13 17 12 13 16 13 7 9 16 7 8 17 18 23 23 19 16 17 19 21 23 21 23 27 27
14 10 7 8 9 9 6 4 6 8 8 6 2 5 6 2 2 9 12 13 9 9 10 13 11 13 11 12 8 11 15 17 20 25 28 17 16 23 27 20 24 25 27 27 27
14 10 7 8 9 8 4 4 5 7 7 3 4 9 2 2 2 5 8 10 6 6 6 9 9 10 15 8 12 23 11 11 20 24 16 29 10 14 26 26 29 30 30 27 26
13 11 8 8 10 7 5 4 5 7 5 1 3 8 4 6 5 6 7 8 6 8 7 9 8 10 12 14 18 10 6 7 12 8 12 12 11 11 24 27 27 21 23 18 20
12 10 8 9 10 6 6 4 3 4 3 2 4 8 7 6 1 3 7 7 10 8 11 13 13 11 14 6 6 6 6 14 12 16 17 7 13 8 22 27 22 24 22 22 21
12 8 7 8 8 6 7 4 2 1 2 8 11 9 7 4 3 9 2 9 11 12 12 14 14 5 6 3 6 11 10 9 15 10 12 18 21 12 23 19 18 28 30 28 25
13 6 4 5 7 5 8 6 7 1 7 9 11 8 4 4 9 10 3 11 14 12 6 13 5 8 11 5 7 9 11 16 16 15 11 14 18 20 21 16 22 30 28 30 31
16 6 3 2 3 4 7 11 9 9 10 15 17 8 9 7 9 5 4 7 12 8 13 7 5 11 18 10 9 9 10 14 15 14 15 18 22 20 13 16 27 24 31 33 32
16 7 3 1 1 2 4 7 11 9 5 13 13 10 3 5 9 8 1 8 8 8 8 7 12 16 12 10 14 9 8 13 15 18 18 17 17 17 14 24 29 31 32 29 28
18 9 1 2 3 8 7 9 7 8 2 4 7 4 7 7 12 12 6 1 3 7 9 6 9 18 14 12 11 7 10 15 18 13 12 7 18 17 14 18 12 27 14 21 15
19 8 1 2 2 9 11 10 10 2 4 8 7 8 6 7 10 9 10 6 9 7 5 10 12 14 15 12 4 7 9 15 19 17 13 11 6 13 14 10 16 14 16 21 9
18 6 5 3 3 11 11 11 5 1 4 5 8 8 6 15 12 8 11 12 13 9 11 12 16 6 17 6 1 7 10 17 9 7 7 7 1 3 3 4 10 9 10 12 5
14 4 8 3 3 10 10 8 3 2 3 3 3 8 10 13 11 3 3 4 6 7 6 8 6 11 10 11 10 12 7 5 5 4 7 5 4 8 14 12 11 13 13 6 3
11 4 2 6 2 11 5 3 3 9 10 11 11 12 11 15 3 3 6 6 6 6 5 3 6 6 16 10 7 4 1 3 6 10 16 9 7 2 5 16 21 30 24 17 6
11 2 4 3 5 8 5 1 3 5 7 9 12 8 8 15 9 8 8 5 3 3 2 4 5 16 17 13 7 7 3 8 7 6 4 5 8 3 12 11 10 20 30 29 41
7 3 6 3 8 3 1 4 3 11 8 7 4 6 9 12 12 10 7 6 9 11 8 3 10 5 12 16 11 9 7 7 2 4 5 5 6 3 8 13 14 15 22 28 30
6 6 6 3 6 2 2 4 5 14 11 3 5 6 9 10 8 9 5 11 6 6 9 4 5 5 7 3 15 12 11 7 3 5 4 4 4 6 6 6 6 0 7 15 21
7 3 5 6 3 5 2 8 8 11 2 6 6 6 6 10 10 8 9 8 18 6 3 6 4 7 12 14 18 13 3 4 3 5 3 3 5 5 5 9 9 17 13 10 12
19 6 7 4 2 3 7 11 11 10 5 0 3 6 8 8 7 5 7 17 14 7 5 4 3 9 8 4 7 5 15 6 9 4 11 8 6 13 15 9 9 10 4 5 13
8 4 4 12 10 6 7 6 9 17 17 9 1 5 8 7 8 8 14 11 27 18 22 4 5 8 14 18 13 18 19 14 7 8 16 16 23 18 9 13 9 6 10 13 13
6 5 10 4 8 15 11 7 13 12 10 16 8 12 10 8 10 11 14 20 17 24 10 2 5 10 13 18 17 22 24 19 17 18 16 24 23 12 14 12 13 4 8 13 16
6 8 11 20 16 10 8 7 10 10 10 8 7 9 7 7 8 16 14 11 10 11 9 1 4 4 11 13 15 23 22 23 19 16 12 10 14 8 19 15 18 13 9 14 19
9 14 7 11 9 6 6 13 13 15 7 20 15 10 8 9 20 23 25 29 25 20 22 8 8 4 24 10 13 13 11 6 9 12 2 1 6 3 10 13 17 22 25 22 20
Wind_Direction
22 28 37 43 51 43 29 31 29 22 30 57 103 120 117 97 69 42 27 357 54 33 15 3 353 336 282 262 261 289 32 295 266 312 309 2 10 352 350 12 349 356 315 306 329
31 32 42 52 51 33 21 28 16 27 43 95 125 129 120 104 89 34 13 26 113 38 48 30 23 25 307 268 231 158 145 246 267 332 339 335 4 329 341 338 339 334 324 314 321
34 38 43 49 40 25 25 29 30 42 86 120 138 139 130 15 31 5 82 72 91 66 37 351 322 290 292 298 240 263 209 308 313 321 331 337 339 339 341 328 319 324 318 312 322
33 38 44 43 30 21 22 29 42 69 107 129 148 152 343 355 63 66 83 69 43 1 343 348 328 17 333 334 333 24 313 301 288 298 334 322 306 301 292 295 301 300 302 298 299
28 31 36 34 24 15 17 49 77 97 122 134 144 154 340 339 76 21 51 21 9 352 328 350 18 4 1 305 332 347 308 309 321 319 314 303 280 288 278 286 283 283 281 283 284
23 24 26 23 16 10 18 73 98 122 129 129 100 339 333 271 347 349 7 4 14 6 354 23 7 338 298 332 335 300 310 314 300 277 273 260 258 265 275 278 282 277 273 271 269
16 18 22 17 13 10 39 105 109 134 140 120 17 356 27 341 133 311 314 328 313 357 336 348 346 346 328 311 301 302 289 281 270 261 251 250 253 245 263 276 265 266 267 258 261
13 17 21 20 15 26 68 105 111 137 149 120 1 346 315 6 258 271 334 334 328 308 300 297 285 306 271 275 286 273 262 278 281 301 330 226 249 242 270 268 261 260 290 239 250
9 15 23 25 21 60 72 78 127 149 176 236 310 338 284 315 8 329 302 325 346 337 300 284 251 255 280 261 295 278 298 312 318 336 335 319 283 271 296 303 294 272 253 253 244
4 8 19 32 41 80 72 44 3 236 253 280 276 305 239 320 304 329 272 332 298 281 289 282 251 216 278 270 287 321 322 310 312 320 303 293 298 293 291 287 306 301 283 251 251
1 357 12 39 69 65 23 2 340 268 292 238 290 277 37 2 313 297 237 333 329 326 294 313 330 262 266 311 328 329 323 309 303 304 306 297 283 281 277 285 283 278 277 271 256
357 345 350 34 77 55 38 19 359 315 300 277 249 275 268 288 292 19 308 336 344 314 303 341 297 315 322 342 329 312 305 306 306 327 326 314 304 298 284 271 267 264 277 267 261
353 340 336 126 88 30 18 7 345 322 280 295 207 234 238 220 272 302 310 336 312 299 343 319 288 295 338 333 317 309 312 328 317 323 309 293 293 300 306 302 284 271 271 261 257
348 337 299 168 358 346 354 334 332 314 301 179 189 248 226 244 256 225 219 210 305 302 306 287 326 328 316 308 302 332 332 315 302 301 293 317 295 288 284 288 310 269 295 316 274
346 336 201 43 48 40 347 323 318 9 11 166 126 182 235 218 264 178 198 201 234 279 310 263 288 292 287 281 26 302 314 291 291 287 305 316 260 299 303 305 339 338 76 339 44
348 343 160 157 84 5 335 324 339 26 250 162 149 210 207 236 271 136 189 229 300 276 262 272 281 309 297 295 333 305 322 322 304 312 297 283 119 305 314 292 311 323 43 9 46
356 349 185 202 41 355 324 314 351 229 192 74 21 355 330 299 281 14 309 277 257 296 284 283 289 290 35 -0 350 344 332 320 330 346 265 345 319 254 317 285 303 319 292 194 225
11 23 174 195 25 319 336 348 263 348 24 5 358 318 289 283 122 290 272 276 309 12 353 324 331 353 358 335 285 290 79 195 282 301 292 300 258 323 49 44 23 351 322 1 40
356 25 119 89 13 304 320 285 279 32 22 352 329 320 336 351 356 352 327 299 355 108 205 335 250 332 333 314 337 299 250 249 285 300 297 237 262 329 21 30 28 348 359 10 20
9 321 313 82 312 92 320 257 294 49 32 16 311 305 350 341 336 339 328 318 358 29 35 316 307 273 305 331 294 280 293 312 291 273 263 254 319 210 2 2 340 7 354 358 7
352 332 202 307 305 251 231 249 356 1 5 60 329 299 304 309 319 323 302 321 43 25 16 323 213 275 339 285 300 315 302 306 282 154 274 292 268 169 171 148 262 288 296 337 339
12 309 217 343 248 223 286 331 351 334 339 308 292 299 326 327 311 295 291 285 320 318 249 219 249 284 275 282 272 264 135 117 293 307 311 292 267 227 179 158 213 247 241 271 288
339 283 251 356 313 325 327 344 323 333 347 189 269 318 341 318 313 249 263 276 291 352 315 225 229 299 303 258 356 344 309 315 303 269 268 278 266 328 313 350 329 302 310 295 305
336 316 344 328 344 25 352 320 324 328 304 304 290 287 281 304 304 301 314 312 322 321 322 234 206 227 262 270 288 293 286 288 259 278 288 267 284 292 308 319 331 351 330 312 300
355 349 17 322 331 325 300 290 292 292 340 6 353 334 330 322 307 294 306 310 309 300 296 221 231 239 252 266 275 276 278 284 279 271 265 287 279 287 316 293 279 291 309 315 297
33 356 331 302 297 303 291 282 311 352 4 325 312 330 353 319 308 321 323 313 284 299 262 313 276 308 273 269 282 286 283 281 287 292 292 296 302 313 280 5 4 338 308 303 289
4 350 318 286 293 296 324 336 329 359 8 343 335 328 323 352 325 309 299 287 273 275 272 243 250 210 269 273 293 289 278 288 260 287 37 149 224 353 351 343 334 325 318 308 304